Weather History for EBCV - October, 2013

Change the Weather History Date:

Sunday, October 6, 2013

  Actual Average Record
Temperature  
Mean Temperature 58 °F -  
Max Temperature 66 °F 52 °F 71 °F (1997)
Min Temperature 50 °F 44 °F 35 °F (1996)
Degree Days  
Heating Degree Days 7    
Growing Degree Days 8 (Base 50)    
Moisture  
Dew Point 52 °F    
Average Humidity 90    
Maximum Humidity 100    
Minimum Humidity 54    
Precipitation  
Precipitation 0.00 in - - ()
Sea Level Pressure  
Sea Level Pressure 30.29 in    
Wind  
Wind Speed 3 mph ()    
Max Wind Speed 7 mph    
Max Gust Speed -    
Visibility 3.9 miles    
Events      
Averages and records for this station are not official NWS values.
T = Trace of Precipitation, MM = Missing Value Source: Averaged Metar Reports

Daily Weather History Graph

Daily Weather History Graph

Search for Another Location

Airport or City:

Trip Planner

Search our weather history database for the weather conditions in past years. The results will help you decide how hot, cold, wet, or windy it might be!

Date:

Astronomy

Oct. 06, 2013 Rise Set
Actual Time 7:52 AM CEST 7:11 PM CEST
Civil Twilight 7:20 AM CEST 7:44 PM CEST
Nautical Twilight 6:42 AM CEST 8:22 PM CEST
Astronomical Twilight 6:03 AM CEST 9:00 PM CEST
Moon 9:33 AM CEST (10/6) 7:45 PM CEST (10/6)
Length of Visible Light 12h 24m
Length of Day
11h 18m
New Moon, 2% of the Moon is Illuminated
Oct 6
New Moon
Oct 12
First Quarter
Oct 19
Full
Oct 27
Last Quarter
Nov 3
New

Hourly Weather History & Observations

Time (CEST) Temp. Dew Point Humidity Pressure Visibility Wind Dir Wind Speed Gust Speed Precip Events Conditions
12:23 AM 50.0 °F 50.0 °F 100% 30.24 in - WNW 4.6 mph - N/A   Mostly Cloudy
12:25 AM 50.0 °F 50.0 °F 100% 30.24 in 1.8 mi WNW 4.6 mph - N/A   Mostly Cloudy
1:08 AM 50.0 °F 50.0 °F 100% 30.24 in 0.9 mi Variable 2.3 mph - N/A   Scattered Clouds
1:17 AM 50.0 °F 50.0 °F 100% 30.24 in 0.4 mi Variable 2.3 mph - N/A   Mostly Cloudy
1:25 AM 50.0 °F 50.0 °F 100% 30.24 in - Variable 2.3 mph - N/A   Mostly Cloudy
1:50 AM 51.8 °F 51.8 °F 100% 30.24 in 1.2 mi WSW 3.5 mph - N/A   Mostly Cloudy
2:00 AM 51 °F 51 °F 100% 30.26 in 1 mi 2.2 mph - -   Clear
2:25 AM 51.8 °F 51.8 °F 100% 30.24 in 1.4 mi Variable 2.3 mph - N/A   Overcast
3:25 AM 53.6 °F 53.6 °F 100% 30.24 in 1.7 mi Variable 2.3 mph - N/A   Overcast
4:25 AM 53.6 °F 53.6 °F 100% 30.24 in 1.6 mi Variable 2.3 mph - N/A   Mostly Cloudy
5:25 AM 53.6 °F 53.6 °F 100% 30.27 in 1.3 mi Variable 2.3 mph - N/A   Mostly Cloudy
6:25 AM 53.6 °F 53.6 °F 100% 30.27 in 1.2 mi SSW 3.5 mph - N/A   Overcast
7:25 AM 53.6 °F 53.6 °F 100% 30.27 in 1.2 mi Variable 2.3 mph - N/A   Overcast
8:25 AM 53.6 °F 53.6 °F 100% 30.27 in 1.2 mi SW 3.5 mph - N/A   Mostly Cloudy
9:25 AM 55.4 °F 55.4 °F 100% 30.30 in 1.8 mi Variable 2.3 mph - N/A   Mostly Cloudy
10:25 AM 57.2 °F 57.2 °F 100% 30.30 in 2.2 mi Variable 2.3 mph - N/A   Partly Cloudy
10:34 AM 59.0 °F 57.2 °F 94% 30.30 in - Variable 2.3 mph - N/A   Unknown
10:50 AM 59.0 °F 57.2 °F 94% 30.30 in - Variable 2.3 mph - N/A   Scattered Clouds
11:00 AM 59 °F 57 °F 90% 30.32 in 2 mi 2.2 mph - -   Mist
11:25 AM 60.8 °F 55.4 °F 82% 30.30 in 3.1 mi Variable 2.3 mph - N/A   Mostly Cloudy
11:57 AM 60.8 °F 55.4 °F 82% 30.30 in 5.6 mi Variable 1.2 mph - N/A   Mostly Cloudy
12:25 PM 64.4 °F 55.4 °F 73% 30.30 in 5.6 mi Variable 1.2 mph - N/A   Mostly Cloudy
12:26 PM 64.4 °F 55.4 °F 73% 30.30 in 4.3 mi Variable 1.2 mph - N/A   Mostly Cloudy
1:25 PM 62.6 °F 53.6 °F 72% 30.30 in 6.2 mi Variable 2.3 mph - N/A   Mostly Cloudy
2:00 PM 63 °F 53 °F 60% 30.31 in 8 mi 2.2 mph - -   Scattered Clouds
2:25 PM 62.6 °F 51.8 °F 68% 30.30 in 6.2 mi Variable 2.3 mph - N/A   Mostly Cloudy
3:25 PM 66.2 °F 51.8 °F 60% 30.30 in 6.2 mi Variable 2.3 mph - N/A   Partly Cloudy
4:25 PM 66.2 °F 51.8 °F 60% 30.30 in 6.2 mi NNW 5.8 mph - N/A   Mostly Cloudy
5:00 PM 65 °F 52 °F 54% 30.30 in 12 mi North 6.7 mph - -   Scattered Clouds
5:25 PM 64.4 °F 51.8 °F 64% 30.27 in 6.2 mi North 4.6 mph - N/A   Partly Cloudy
6:25 PM 62.6 °F 51.8 °F 68% 30.30 in 6.2 mi NNE 4.6 mph - N/A   Partly Cloudy
7:25 PM 57.2 °F 51.8 °F 82% 30.30 in 6.2 mi Variable 2.3 mph - N/A   Unknown
8:00 PM 56 °F 53 °F 85% 30.32 in 7 mi 2.2 mph - -  
8:20 PM 53.6 °F 51.8 °F 94% 30.30 in 4.3 mi Variable 1.2 mph - N/A   Unknown
8:25 PM 53.6 °F 51.8 °F 94% 30.30 in 6.2 mi Variable 1.2 mph - N/A   Unknown
8:54 PM 53.6 °F 51.8 °F 94% 30.30 in 4.3 mi Variable 1.2 mph - N/A   Unknown
9:25 PM 51.8 °F 50.0 °F 94% 30.30 in 5.0 mi ENE 3.5 mph - N/A   Unknown
9:34 PM 51.8 °F 50.0 °F 94% 30.33 in - Variable 2.3 mph - N/A   Unknown
9:45 PM 51.8 °F 50.0 °F 94% 30.33 in 5.0 mi Variable 2.3 mph - N/A   Unknown
9:50 PM 51.8 °F 50.0 °F 94% 30.33 in 4.3 mi Variable 2.3 mph - N/A   Unknown
10:14 PM 50.0 °F 50.0 °F 100% 30.33 in - Variable 2.3 mph - N/A   Unknown
10:22 PM 50.0 °F 50.0 °F 100% 30.33 in - Variable 2.3 mph - N/A   Unknown
10:25 PM 50.0 °F 48.2 °F 94% 30.33 in 3.1 mi SSE 3.5 mph - N/A   Unknown
11:00 PM 50 °F 49 °F 94% 30.34 in 4 mi 2.2 mph - -  
11:25 PM 50.0 °F 50.0 °F 100% 30.33 in 5.0 mi Calm Calm - N/A   Mostly Cloudy
11:35 PM 50.0 °F 50.0 °F 100% 30.33 in 4.3 mi Calm Calm - N/A   Scattered Clouds
11:39 PM 50.0 °F 50.0 °F 100% 30.33 in 2.8 mi Variable 1.2 mph - N/A   Scattered Clouds
11:43 PM 50.0 °F 48.2 °F 94% 30.33 in 2.2 mi Variable 1.2 mph - N/A   Partly Cloudy
11:54 PM 50.0 °F 48.2 °F 94% 30.33 in 3.1 mi Variable 1.2 mph - N/A   Partly Cloudy
11:57 PM 50.0 °F 48.2 °F 94% 30.33 in - Variable 1.2 mph - N/A   Partly Cloudy